Temperature
17 16 16 15 15 15 15 15 15 15 15 15 15 15 16 16 16 17 17 17 17 17 17 17 18 18 18 18 18 18 18 18 18 18 18 19 19 19 19 19 19 19 18
16 16 15 14 14 14 14 14 14 14 14 14 14 15 15 15 16 16 16 17 17 17 17 17 17 17 17 17 17 17 17 17 17 17 18 18 18 19 19 18 18 18 18
16 15 14 14 13 13 13 13 13 13 14 14 14 14 14 15 15 16 16 16 16 16 17 17 17 17 17 17 17 17 17 17 17 17 17 17 18 18 18 18 18 18 18
15 14 14 13 13 13 13 13 13 13 13 13 14 14 14 14 14 15 15 16 16 16 16 16 17 17 17 17 17 17 17 17 17 17 17 17 17 18 18 18 18 18 18
14 14 13 13 13 12 13 13 13 13 13 13 13 13 14 14 14 15 15 15 16 16 16 16 16 16 16 17 16 16 17 16 17 17 17 17 17 17 17 17 18 18 18
14 14 13 13 13 12 12 13 13 13 13 13 13 13 13 14 14 14 15 15 15 15 15 16 16 16 16 16 16 16 16 16 16 16 16 16 17 17 17 17 17 17 17
14 13 13 12 12 12 12 12 12 12 13 13 13 13 13 13 14 14 14 14 15 15 15 15 15 16 16 16 16 16 16 16 16 16 16 16 16 16 17 16 17 17 17
14 13 13 13 12 12 12 12 12 12 12 12 13 13 13 13 13 13 14 14 14 14 15 15 15 15 15 15 16 16 16 16 16 16 16 16 16 16 16 16 16 16 16
14 14 13 13 13 12 12 12 12 12 12 12 12 12 13 13 13 13 13 14 14 14 14 14 15 15 15 15 15 15 15 15 15 15 15 15 15 15 15 15 16 16 16
14 14 13 13 13 13 12 12 12 12 12 12 12 12 12 13 13 13 13 13 14 14 14 14 14 14 14 15 15 15 15 15 15 15 15 15 15 15 15 15 15 15 15
14 14 14 13 13 13 13 12 12 12 12 12 12 12 12 12 12 12 13 13 13 13 13 13 14 14 14 14 14 14 14 15 15 15 15 15 15 15 15 15 15 15 14
15 14 14 14 13 13 13 12 12 12 12 12 12 12 12 12 12 12 12 12 13 13 13 13 13 13 13 13 14 14 14 14 14 14 14 14 14 14 14 14 14 14 14
15 15 14 14 13 13 13 12 12 12 12 12 12 12 11 11 12 12 12 12 12 12 13 13 13 13 13 13 13 13 14 14 14 14 14 14 14 14 14 14 14 14 14
15 15 14 14 14 13 13 13 12 12 12 12 11 11 11 11 11 11 12 12 12 12 12 12 13 13 13 13 13 13 13 13 14 14 14 14 14 14 14 14 14 14 14
16 15 15 14 14 14 13 13 12 12 12 12 11 11 11 11 11 11 11 11 11 11 11 12 12 12 13 13 13 13 13 13 13 13 13 13 13 14 14 14 14 13 13
16 16 15 15 14 14 13 13 12 12 12 12 11 11 11 11 11 11 11 11 11 11 11 11 12 12 12 12 12 12 12 13 13 13 13 13 13 13 13 13 13 13 13
16 16 15 15 15 14 14 13 13 12 12 11 11 11 11 11 10 10 10 10 10 10 11 11 11 11 12 12 12 12 12 12 12 12 12 12 12 13 13 13 13 13 13
16 16 15 15 15 15 14 14 13 12 12 11 11 11 11 10 10 10 10 10 10 10 10 10 10 11 11 11 12 12 11 11 11 12 12 12 12 12 13 13 13 13 13
16 16 15 15 15 14 14 14 13 12 12 11 11 11 11 10 10 10 10 10 10 10 10 10 10 10 11 11 11 11 11 11 11 11 12 12 12 12 12 13 13 13 13
16 15 15 15 15 14 14 14 13 13 12 11 11 11 11 10 10 10 10 10 10 10 10 10 10 10 10 10 11 11 11 11 11 11 11 12 12 12 12 12 12 12 12
15 15 15 15 15 14 14 14 13 12 12 11 11 11 11 10 10 10 10 10 10 10 10 10 10 10 10 10 10 11 11 11 11 11 11 11 12 12 12 12 12 12 12
16 15 15 15 14 14 14 14 13 12 12 11 11 11 11 11 10 10 10 10 10 10 10 10 9 10 10 10 10 10 10 10 11 11 11 11 12 12 12 12 12 12 12
16 16 15 15 15 14 14 14 13 12 12 11 11 11 11 11 10 10 10 10 10 9 9 9 9 9 10 10 10 10 10 10 10 11 11 11 11 12 12 12 12 12 11
16 16 15 15 15 15 14 14 13 13 12 12 12 12 11 11 11 10 10 10 10 10 10 10 10 9 10 10 10 10 10 10 10 10 11 11 11 11 11 11 11 11 11
17 16 16 16 15 15 14 14 13 13 13 13 13 12 12 11 11 11 10 10 10 10 10 10 10 11 11 11 11 11 11 10 10 10 10 10 10 11 11 11 11 11 11
17 16 16 16 16 15 15 14 14 13 13 14 13 13 12 12 11 11 11 11 10 10 11 11 11 11 11 11 11 11 11 10 10 10 10 10 10 10 10 10 10 10 10
Wind_Speed
13 12 12 12 12 11 11 10 9 7 5 3 4 4 5 4 4 3 5 6 6 6 5 5 5 5 5 5 4 3 3 2 2 2 2 2 4 5 5 4 3 5 10
13 13 13 12 13 12 12 11 10 9 8 4 4 4 5 5 5 4 4 6 6 6 5 5 5 6 5 6 6 4 3 3 2 2 1 2 2 3 4 4 4 4 5
14 14 13 13 12 12 12 12 10 10 8 7 5 5 4 4 4 4 5 5 5 6 5 5 6 6 6 6 7 7 6 4 3 3 3 3 4 2 3 3 4 4 3
12 12 12 13 13 13 12 12 11 10 9 8 6 6 5 5 5 5 5 5 4 5 6 6 6 7 6 7 8 8 6 6 5 3 3 3 3 3 2 2 3 3 4
12 12 12 12 12 13 12 11 11 10 9 8 7 6 5 5 5 5 5 5 4 4 5 5 6 7 7 7 7 7 7 7 6 5 4 4 2 2 2 2 2 1 1
11 11 11 11 11 11 11 11 10 10 9 8 7 6 6 6 6 6 5 4 3 2 3 3 4 5 6 7 8 8 9 8 8 6 5 4 3 3 3 3 2 2 2
10 11 12 11 11 11 11 11 11 10 10 10 8 7 7 6 5 5 5 4 3 2 2 2 3 4 4 5 6 7 8 8 8 8 6 5 5 3 3 3 3 3 2
9 10 10 9 9 10 10 10 10 10 10 10 9 9 9 6 5 6 5 4 3 3 2 2 2 2 3 3 4 4 6 6 7 8 7 5 5 4 4 4 4 3 2
9 9 9 9 9 9 9 9 10 10 10 11 10 9 9 9 8 8 7 5 5 4 3 2 2 1 1 2 2 2 2 3 5 5 5 5 4 4 4 4 4 5 4
9 8 7 8 8 8 8 8 9 10 9 10 9 9 8 8 8 8 9 8 8 7 7 6 5 4 3 2 2 1 1 2 2 3 5 5 4 4 4 4 4 4 4
7 7 6 6 6 7 7 8 8 9 9 8 8 9 9 9 9 9 9 8 8 9 8 7 6 6 6 5 4 2 1 1 2 3 4 4 4 4 4 4 4 4 4
5 5 6 6 6 7 7 8 8 8 7 7 8 8 8 9 9 9 9 9 9 9 9 8 8 8 7 6 5 3 3 2 2 2 3 3 3 4 4 4 4 4 4
4 4 5 5 5 6 6 7 7 7 6 7 8 8 9 9 10 10 10 10 10 10 10 9 9 9 9 8 7 6 5 4 2 2 2 3 4 3 3 3 4 3 3
4 4 3 4 4 5 5 6 6 6 7 7 8 8 9 9 9 9 10 10 10 10 10 10 10 9 10 10 9 7 5 4 4 3 3 3 3 3 3 4 4 4 4
4 4 4 4 4 4 5 5 5 6 6 7 8 8 8 8 8 9 9 9 10 11 10 10 10 9 9 10 10 8 6 5 5 5 5 5 5 4 3 4 4 4 4
5 4 4 4 4 4 5 5 5 6 6 7 7 7 8 8 8 8 8 9 9 9 9 9 9 10 10 13 14 10 6 5 5 5 4 5 6 6 7 7 6 5 4
3 4 4 4 3 4 5 4 4 5 7 7 7 7 8 8 8 9 8 8 8 8 8 9 8 9 11 16 15 14 6 5 6 5 5 5 6 6 5 7 9 8 6
4 4 4 4 4 5 4 3 4 6 7 6 6 7 7 7 7 7 7 7 6 7 7 7 8 8 12 17 16 13 6 6 7 7 6 6 6 6 5 6 8 8 8
2 3 3 3 5 5 4 4 6 7 6 6 6 7 7 7 7 7 6 5 5 5 6 6 7 8 10 16 16 13 5 5 7 7 8 7 6 8 8 6 7 7 6
2 2 3 3 4 4 3 4 5 6 6 6 6 6 5 6 7 7 6 4 4 4 4 5 6 7 8 14 17 14 6 6 5 6 7 10 8 8 7 5 6 7 5
2 1 1 3 3 3 3 5 6 7 6 5 5 5 5 5 5 5 5 5 5 5 4 5 5 6 8 11 15 14 7 5 5 5 6 6 9 8 7 5 5 5 4
5 2 1 2 2 1 2 5 6 5 4 3 3 3 4 5 5 4 5 5 5 5 5 5 5 5 6 9 11 13 11 8 6 5 4 5 7 8 8 6 6 7 6
5 4 2 1 2 3 2 3 5 3 3 2 1 0 2 3 4 5 5 5 6 6 5 5 5 5 6 8 13 11 9 9 5 4 5 5 6 6 6 8 9 7 5
5 5 4 4 3 4 3 3 4 3 4 3 2 0 3 4 4 4 5 5 5 6 6 6 6 5 6 7 8 7 6 6 5 3 3 5 6 5 5 5 6 5 5
6 5 4 2 2 4 4 4 4 4 4 4 4 3 3 2 2 3 3 4 4 3 3 4 5 5 5 6 8 6 5 5 5 3 1 3 3 4 5 5 5 4 5
7 6 5 4 4 5 5 6 4 4 5 2 2 2 3 2 1 3 3 3 3 4 4 3 4 3 4 5 8 9 10 10 9 5 4 4 4 4 4 4 4 4 4
Wind_Direction
358 4 358 353 347 346 343 334 329 325 319 314 310 304 298 293 278 256 247 241 238 235 224 217 207 207 207 208 218 221 217 226 249 262 283 252 210 204 195 206 199 191 178
356 360 356 353 348 346 342 332 336 334 330 317 303 287 288 284 276 270 258 243 238 233 227 213 208 206 207 207 206 204 207 209 209 196 220 264 286 263 208 189 198 221 181
357 355 354 352 348 347 342 335 335 331 329 327 313 304 299 291 284 279 271 255 240 231 224 217 209 205 200 204 202 198 193 201 210 205 181 178 212 251 271 216 201 210 193
357 358 357 354 352 349 343 340 338 335 334 331 324 319 305 299 296 295 285 273 250 233 221 216 213 210 202 200 205 200 194 191 204 218 219 211 177 171 252 271 228 215 206
1 1 359 354 355 352 349 344 344 343 339 335 329 324 315 307 304 306 302 293 269 247 227 217 214 214 211 203 202 198 197 198 199 200 201 219 224 194 183 241 275 280 251
2 2 357 356 357 356 353 351 351 352 350 343 341 336 327 324 325 322 323 315 302 279 255 230 219 216 210 208 208 203 203 203 203 202 198 191 194 194 189 204 214 236 268
3 360 0 359 357 357 357 358 358 359 359 358 356 354 353 345 337 330 322 329 325 310 294 258 224 218 216 208 202 200 205 207 205 202 203 198 199 188 181 186 201 213 235
5 3 3 358 357 357 0 5 4 3 2 3 5 10 10 4 360 354 352 354 345 331 322 305 257 205 196 203 199 197 206 197 199 207 202 198 198 191 188 182 176 188 225
10 8 5 0 1 1 5 9 9 10 11 11 12 16 15 15 17 12 11 11 4 360 9 20 35 52 113 122 143 178 197 188 195 201 198 190 192 188 188 184 178 175 189
10 8 7 3 5 2 4 18 23 21 16 15 16 21 19 19 19 21 18 15 12 18 28 36 40 42 57 82 96 118 196 188 188 184 188 190 188 186 187 180 179 175 174
11 5 3 1 4 8 10 21 25 23 19 16 17 22 22 23 22 22 18 16 18 23 28 34 40 45 47 50 58 49 78 140 156 171 175 181 181 182 183 178 180 182 177
12 10 6 8 11 12 16 20 23 24 21 17 19 25 25 25 26 23 20 20 25 25 27 30 37 40 43 47 50 42 45 77 119 150 147 157 156 164 171 175 180 181 179
23 22 10 14 13 11 19 21 21 23 26 23 20 26 29 26 25 23 21 24 27 28 29 33 34 34 33 33 31 31 34 45 51 86 124 137 140 150 159 159 159 159 152
24 24 16 23 16 15 28 30 19 19 30 31 28 29 32 30 28 25 24 26 26 29 29 34 36 32 32 26 18 17 28 48 47 55 84 103 124 142 153 148 148 147 140
28 29 33 32 26 26 33 40 25 23 34 38 35 30 32 32 28 29 29 29 29 31 32 34 34 31 32 22 14 4 18 44 52 52 70 83 90 98 113 127 139 145 145
28 22 36 33 23 39 41 41 32 30 39 43 40 33 34 31 28 28 29 33 32 29 30 34 34 34 28 16 18 10 8 36 54 52 59 86 84 87 92 108 113 125 140
30 21 28 27 21 64 65 54 42 46 44 41 44 39 36 33 28 27 28 32 33 28 29 30 30 33 23 17 15 7 6 48 52 51 53 64 70 69 81 94 93 83 77
39 26 16 14 32 57 65 83 78 65 50 35 42 47 40 32 26 27 31 28 29 30 30 29 29 30 26 19 14 6 24 60 61 53 47 58 61 55 62 90 84 71 53
45 27 2 8 51 47 29 54 74 72 60 38 41 48 42 30 22 24 29 26 23 29 32 29 30 31 26 20 18 11 28 56 66 64 53 50 53 50 58 88 95 88 77
69 16 340 25 48 43 18 57 74 74 62 43 43 48 50 43 26 16 17 22 21 27 41 39 39 39 33 28 27 23 30 42 53 62 61 50 48 49 57 84 102 100 98
125 286 322 67 45 18 17 61 68 72 68 53 43 37 38 60 47 12 11 23 21 20 36 50 53 50 40 32 32 33 35 30 46 52 52 40 40 49 53 71 90 107 113
161 212 299 112 116 21 20 83 85 89 94 78 57 56 49 41 47 24 19 19 12 15 25 36 43 49 46 35 25 31 38 37 49 48 44 38 39 52 60 62 64 79 82
168 175 205 204 187 147 74 96 117 128 139 121 88 88 107 88 53 29 28 26 18 16 21 23 31 42 39 25 17 18 28 35 51 61 55 47 47 60 61 54 58 70 79
179 175 205 218 189 137 139 132 137 179 194 169 183 166 68 74 71 49 37 45 29 16 14 16 17 27 41 22 8 1 12 25 41 52 53 46 50 61 62 54 56 63 79
176 188 219 201 178 168 166 153 165 219 228 194 183 164 115 82 92 98 62 64 82 70 33 11 10 20 22 6 1 6 6 2 7 355 45 52 48 50 54 57 57 61 70
187 190 192 199 229 200 173 161 171 237 266 237 152 139 143 149 172 150 133 65 101 127 94 59 37 65 44 3 3 3 1 2 4 27 62 61 58 55 58 63 61 57 65
Height
1552 1550 1547 1544 1540 1537 1534 1532 1529 1527 1524 1522 1520 1519 1518 1517 1517 1517 1517 1518 1518 1520 1521 1523 1525 1527 1529 1532 1534 1538 1540 1543 1546 1549 1550 1552 1554 1556 1557 1559 1560 1561 1562
1552 1549 1546 1542 1539 1535 1532 1529 1526 1524 1522 1519 1517 1516 1515 1513 1513 1513 1513 1513 1514 1515 1516 1518 1519 1522 1524 1527 1529 1533 1536 1539 1542 1545 1547 1549 1551 1552 1554 1555 1557 1559 1560
1552 1549 1545 1541 1537 1533 1530 1527 1524 1521 1518 1516 1514 1513 1511 1510 1509 1509 1509 1509 1510 1510 1512 1513 1515 1517 1519 1521 1524 1527 1531 1534 1537 1540 1543 1545 1546 1548 1550 1551 1553 1555 1557
1552 1549 1545 1540 1536 1532 1528 1524 1521 1518 1515 1513 1511 1510 1508 1507 1506 1506 1505 1506 1506 1506 1507 1509 1511 1512 1514 1516 1519 1522 1526 1528 1531 1535 1538 1541 1542 1545 1546 1548 1549 1551 1553
1552 1549 1545 1540 1536 1531 1527 1523 1519 1516 1513 1511 1509 1507 1505 1504 1503 1503 1502 1502 1502 1503 1503 1504 1506 1508 1510 1511 1514 1517 1520 1522 1525 1529 1532 1535 1538 1540 1542 1543 1545 1547 1549
1552 1549 1545 1540 1536 1531 1527 1523 1519 1515 1512 1509 1507 1505 1503 1502 1501 1500 1499 1499 1499 1499 1499 1500 1501 1503 1505 1507 1509 1512 1515 1517 1520 1523 1526 1529 1533 1535 1538 1540 1542 1543 1545
1552 1548 1544 1540 1536 1532 1527 1523 1519 1515 1512 1509 1506 1504 1502 1501 1500 1498 1498 1497 1496 1496 1496 1496 1497 1498 1500 1502 1505 1507 1510 1512 1514 1517 1520 1523 1527 1530 1533 1536 1538 1540 1542
1552 1549 1545 1541 1537 1533 1528 1524 1520 1516 1513 1510 1507 1505 1502 1500 1499 1498 1496 1496 1495 1494 1494 1494 1495 1495 1497 1499 1501 1503 1505 1508 1510 1512 1515 1518 1522 1525 1527 1530 1533 1535 1538
1553 1549 1546 1542 1538 1534 1530 1526 1522 1518 1515 1511 1509 1506 1503 1501 1500 1498 1496 1496 1495 1494 1494 1493 1494 1494 1495 1496 1498 1500 1502 1504 1507 1509 1511 1514 1517 1520 1522 1525 1528 1531 1532
1553 1550 1547 1543 1540 1537 1533 1529 1525 1521 1517 1514 1511 1508 1506 1503 1502 1500 1498 1497 1496 1495 1494 1494 1494 1494 1494 1496 1497 1498 1500 1502 1504 1506 1508 1510 1513 1515 1518 1520 1523 1526 1528
1553 1551 1548 1545 1542 1538 1535 1531 1527 1523 1519 1516 1514 1511 1508 1506 1504 1502 1500 1499 1498 1496 1495 1495 1494 1494 1495 1495 1496 1498 1499 1500 1501 1503 1505 1507 1510 1511 1513 1516 1518 1521 1524
1553 1551 1548 1546 1543 1540 1536 1533 1530 1526 1523 1520 1517 1514 1512 1509 1507 1505 1504 1502 1500 1499 1497 1497 1496 1496 1496 1496 1496 1497 1498 1499 1500 1502 1503 1505 1507 1508 1510 1512 1514 1517 1519
1553 1551 1549 1546 1544 1541 1538 1535 1532 1529 1526 1523 1520 1518 1515 1512 1510 1508 1506 1505 1503 1501 1500 1499 1498 1498 1497 1497 1497 1498 1498 1498 1499 1501 1502 1503 1505 1506 1508 1510 1512 1514 1516
1553 1551 1549 1547 1544 1542 1540 1537 1534 1532 1529 1526 1523 1521 1518 1516 1513 1511 1509 1507 1505 1504 1502 1501 1500 1500 1499 1499 1499 1499 1498 1498 1499 1500 1501 1502 1504 1505 1507 1509 1510 1512 1514
1552 1551 1549 1547 1545 1543 1541 1539 1536 1534 1531 1529 1526 1523 1521 1518 1516 1514 1512 1510 1508 1506 1505 1503 1502 1501 1500 1500 1500 1499 1499 1499 1499 1499 1500 1502 1503 1504 1506 1508 1509 1511 1513
1552 1551 1549 1548 1546 1544 1542 1540 1538 1536 1533 1531 1528 1526 1523 1521 1518 1516 1514 1512 1510 1508 1507 1505 1504 1503 1502 1501 1500 1500 1500 1500 1500 1500 1500 1502 1502 1504 1506 1507 1509 1511 1513
1552 1551 1550 1548 1546 1544 1543 1541 1539 1537 1535 1533 1531 1528 1526 1523 1521 1518 1516 1514 1512 1511 1509 1507 1506 1504 1503 1502 1501 1501 1501 1500 1501 1501 1501 1502 1503 1505 1506 1507 1509 1511 1513
1551 1551 1550 1548 1547 1545 1544 1542 1540 1538 1537 1535 1533 1530 1528 1525 1523 1521 1519 1517 1515 1513 1511 1510 1508 1506 1505 1504 1503 1502 1502 1502 1502 1502 1503 1503 1504 1506 1507 1508 1510 1511 1513
1551 1551 1550 1549 1547 1546 1545 1543 1542 1540 1538 1537 1535 1533 1530 1528 1525 1523 1521 1519 1518 1516 1514 1512 1511 1509 1507 1505 1504 1504 1504 1504 1504 1504 1504 1505 1506 1507 1508 1510 1511 1513 1515
1550 1550 1549 1549 1548 1546 1545 1544 1542 1541 1539 1538 1536 1534 1532 1530 1528 1526 1524 1522 1520 1519 1517 1515 1513 1511 1509 1508 1506 1506 1505 1505 1505 1506 1506 1507 1508 1509 1510 1512 1513 1515 1517
1549 1549 1549 1548 1548 1547 1546 1545 1543 1542 1540 1539 1538 1536 1534 1532 1530 1528 1526 1524 1523 1521 1520 1518 1516 1514 1512 1510 1509 1508 1507 1507 1507 1508 1508 1509 1509 1511 1512 1514 1516 1517 1519
1548 1549 1549 1548 1548 1547 1546 1545 1543 1542 1541 1540 1539 1538 1536 1534 1532 1530 1528 1527 1525 1523 1522 1520 1518 1516 1515 1513 1512 1511 1510 1510 1510 1510 1510 1511 1512 1513 1515 1516 1518 1519 1521
1547 1548 1548 1548 1547 1547 1546 1545 1544 1543 1542 1541 1540 1539 1538 1536 1534 1532 1530 1528 1526 1525 1524 1522 1521 1519 1517 1516 1515 1514 1513 1513 1512 1513 1513 1514 1515 1516 1517 1519 1520 1521 1523
1546 1546 1547 1547 1547 1546 1546 1545 1544 1543 1542 1542 1541 1540 1539 1538 1536 1534 1532 1530 1528 1526 1525 1523 1522 1521 1519 1518 1517 1516 1516 1515 1516 1516 1516 1517 1518 1519 1520 1521 1522 1523 1524
1544 1545 1545 1546 1546 1545 1545 1544 1543 1543 1543 1542 1541 1541 1540 1538 1537 1536 1534 1532 1530 1528 1527 1525 1524 1523 1521 1520 1519 1519 1518 1518 1518 1518 1519 1520 1520 1521 1522 1523 1524 1525 1526
1542 1543 1543 1544 1544 1544 1544 1543 1542 1542 1542 1543 1542 1541 1540 1539 1538 1536 1535 1534 1532 1530 1528 1527 1526 1524 1524 1523 1522 1521 1521 1521 1521 1521 1521 1522 1522 1523 1524 1524 1525 1526 1527